• Join FlightAware (Why Join?)
  • Login
  • US Flag 
12:29AM EST


 

Airport Tracker/Info


-or-


 

Live Flight TrackerFlight Track Log ✈ LOF3377 ✈ 07-May-2013 ✈ KCVG - KORD

Flight Track Log - Related Links

Times and Time Zones

All times are in EDT time to prevent confusion due to time zone crossing. See the LOF3377 flight status page for this flight to view local times or setup timezone preferences in your user account.

Time Position Orientation Groundspeed Altitude Reporting Facility
EDT Latitude Longitude Course Direction KTS MPH feet Rate Location/Type
04:38PM 39.0333 -84.6667 351° North 180 207 1,300  Level Cincinnati TRACON
04:39PM 39.0167 -84.7000 237° Southwest 187 215 2,800 2,059 Climbing Cincinnati TRACON
04:40PM 39.0500 -84.7500 311° West 260 299 4,800 2,450 Climbing Cincinnati TRACON
04:41PM 39.1167 -84.7833 339° North 263 303 7,700 2,217 Climbing Cincinnati TRACON
04:43PM 39.0657 -84.8931 351° North  Level FlightAware Approximate
04:43PM 39.2900 -84.8836 336° Northwest 300 345 12,300  Level Indianapolis Center
04:44PM 39.3769 -84.9297 338° Northwest 333 383 13,800 1,452 Climbing Indianapolis Center
04:45PM 39.4686 -84.9792 337° Northwest 350 403 15,300 1,597 Climbing Indianapolis Center
04:46PM 39.5742 -85.0533 332° Northwest 370 426 17,100 1,597 Climbing Indianapolis Center
04:47PM 39.6528 -85.1453 318° Northwest 383 441 18,600 1,392 Climbing Indianapolis Center
04:48PM 39.7311 -85.2397 317° Northwest 385 443 20,000 1,248 Climbing Indianapolis Center
04:49PM 39.8131 -85.3356 318° Northwest 396 456 21,200 968 Climbing Indianapolis Center
04:50PM 39.8975 -85.4328 319° Northwest 405 466 22,000 339 Climbing Indianapolis Center
04:51PM 40.0058 -85.5358 324° Northwest 405 466 21,900 -48 Descending Indianapolis Center
04:52PM 40.0911 -85.6317 319° Northwest 408 470 21,900  Level Indianapolis Center
04:53PM 40.1767 -85.7317 318° Northwest 415 478 21,900  Level Indianapolis Center
04:54PM 40.2608 -85.8314 318° Northwest 416 479 21,900  Level Chicago Center
04:55PM 40.3467 -85.9356 317° Northwest 423 487 21,900  Level Chicago Center
04:56PM 40.4328 -86.0408 317° Northwest 425 489 21,900  Level Chicago Center
04:57PM 40.5367 -86.1653 318° Northwest 425 489 21,900  Level Chicago Center
04:58PM 40.6233 -86.2703 317° Northwest 426 490 21,900  Level Chicago Center
04:59PM 40.7147 -86.3806 318° Northwest 427 491 21,900 -387 Level Chicago Center
05:00PM 40.8011 -86.4906 316° Northwest 431 496 21,100 -1,258 Descending Chicago Center
05:01PM 40.8853 -86.5942 317° Northwest 417 480 19,300 -1,790 Descending Chicago Center
05:02PM 40.9675 -86.6953 317° Northwest 405 466 17,400 -1,887 Descending Chicago Center
05:04PM 41.0608 -86.8108 317° Northwest 392 451 15,400 -1,839 Descending Chicago Center
05:05PM 41.1342 -86.9039 316° Northwest 371 427 13,600 -1,790 Descending Chicago Center
05:06PM 41.2064 -86.9944 317° Northwest 361 415 11,700 -1,258 Descending Chicago Center
05:07PM 41.2778 -87.0853 316° Northwest 359 413 11,000 -339 Descending Chicago Center
05:08PM 41.3475 -87.1711 317° Northwest 348 400 11,000  Level Chicago Center
05:08PM 41.4167 -87.2500 319° Northwest 364 419 11,000 -112 Level Chicago TRACON
05:09PM 41.4833 -87.3500 312° West 369 425 10,800 -450 Descending Chicago TRACON
05:10PM 41.5667 -87.4333 323° Northwest 349 402 10,100 -600 Descending Chicago TRACON
05:11PM 41.5847 -87.4483 328° Northwest 349 402 10,000 -73 Descending Chicago Center
05:12PM 41.6578 -87.5292 320° Northwest 345 397 10,000 -48 Level Chicago Center
05:13PM 41.7278 -87.6078 320° Northwest 332 382 9,900 -1,269 Descending Chicago Center
05:14PM 41.7833 -87.6667 322° Northwest 262 302 7,800 -1,706 Descending Chicago TRACON
05:15PM 41.8167 -87.7333 304° West 275 316 7,000 -417 Descending Chicago TRACON
05:15PM 41.8167 -87.8333 270° West 284 327 7,000 -446 Level Chicago TRACON
05:17PM 41.8000 -87.9333 257° West 234 269 6,100 -923 Descending Chicago TRACON
05:17PM 41.7864 -87.9500 222° Southwest 254 292 5,600 -1,448 Descending Chicago Center
05:18PM 41.8164 -88.0369 295° West 229 264 4,000 -1,161 Descending Chicago Center
05:19PM 41.8550 -88.0172 21° North 195 224 3,200 -848 Descending Chicago Center
05:20PM 41.8833 -87.9833 42° Northeast 180 207 2,600 -973 Descending Chicago TRACON